Regional Weather Roundup
Issued by NWS

Home | Current Version | Previous Version | Text Only | Print | Product List | Glossary On
Versions: 1 2 3 4 5 6 7 8 9 10 11 12 13 14 15 16 17 18 19 20 21 22 23 24 25 26 27 28 29 30 31 32 33 34 35 36 37 38 39 40 41 42 43 44 45 46 47 48 49 50
000
ASUS44 KBMX 201910
RWRAL

ALABAMA REGIONAL WEATHER ROUNDUP
NATIONAL WEATHER SERVICE BIRMINGHAM AL
100 PM CST TUE FEB 20 2018

NOTE: "FAIR" INDICATES FEW OR NO CLOUDS BELOW 12,000 FEET
WITH NO SIGNIFICANT WEATHER AND/OR OBSTRUCTIONS TO VISIBILITY.

THE REMARK "TC" DENOTES TEMPERATURE IN DEGREES CELSIUS.

ALZ001>011-014-016>018-020-202000-
NORTH ALABAMA

CITY           SKY/WX    TMP DP  RH WIND       PRES   REMARKS
MUSCLE SHOALS  CLOUDY    77  60  55 S16G24    30.20F
HUNTSVILLE     PTSUNNY   76  63  64 S10G22    30.22F
DECATUR        CLOUDY    76  60  57 S16       30.22F
HALEYVILLE     CLOUDY    76  63  64 S16       30.23F
GADSDEN        CLOUDY    76  65  68 SE12      30.26F
$$

ALZ012-013-022-023-030>036-040>044-202000-
WEST CENTRAL ALABAMA

CITY           SKY/WX    TMP DP  RH WIND       PRES   REMARKS
TUSCALOOSA     PTSUNNY   79  63  57 S20G25    30.21F
DEMOPOLIS        N/A     80  59  47 S10G23    30.20F
$$

ALZ015-024>026-033>036-041>044-202000-
CENTRAL ALABAMA

CITY           SKY/WX    TMP DP  RH WIND       PRES   REMARKS
BIRMINGHAM     PTSUNNY   78  61  55 SE14G21   30.26F
MONTGOMERY     CLOUDY    79  64  60 S13       30.25F
SHELBY CO ARPT PTSUNNY   79  63  57 S15G23    30.25F
MAXWELL AFB    CLOUDY    79  64  61 SE16      30.24F
GREENVILLE     PTSUNNY   81  61  50 S8G25     30.24F
SELMA          MOCLDY    81  63  54 SE12G21   30.22F
PRATTVILLE     MOCLDY    79  64  59 SE10G20   30.25F
BESSEMER       MOCLDY    78  62  57 S10G25    30.25F
TALLADEGA      CLOUDY    78  63  60 S12G20    30.27F
PELL CITY      MOCLDY    81  64  57 S6G14     30.26F
MARION         MOCLDY    78  63  59 S18G31    30.21F
SYLACAUGA      PTSUNNY   80  65  60 S14G22    30.27F
$$

ALZ019-021-028-029-037-038-045>048-202000-
EAST CENTRAL ALABAMA

CITY           SKY/WX    TMP DP  RH WIND       PRES   REMARKS
ANNISTON       PTSUNNY   76  63  64 SE10G18   30.28F
ALEXANDER CITY FAIR      74  66  77 S9        30.29F
AUBURN         CLOUDY    73  65  75 SE10      30.32F
$$

ALZ051>064-202000-
SOUTHWEST ALABAMA

CITY           SKY/WX    TMP DP  RH WIND       PRES   REMARKS
MOBILE         CLOUDY    76  68  76 SE17G28   30.23F
BROOKLEY FIELD PTSUNNY   77  69  76 SE15G24   30.23F
EVERGREEN      PTSUNNY   82  64  54 S13       30.24F
$$

ALZ049-050-065>069-202000-
SOUTHEAST ALABAMA

CITY           SKY/WX    TMP DP  RH WIND       PRES   REMARKS
DOTHAN         CLOUDY    78  64  61 SE14      30.31F
OZARK          FAIR      79  67  65 SE8       30.26F
TROY           CLOUDY    77  66  68 S7        30.28F
EUFAULA        CLOUDY    80  67  64 S8        30.28F
$$



USA.gov is the U.S. government's official web portal to all federal, state and local government web resources and services.